SCP
0 0 0 -0 -0 -0 0 0 0 -0 -0 -0 -0 -0 0 -0 0 0 0 0 0 0 0 1 1 1 1 2 3 4 4 2 1 1 1 0 0 0 0 0 0 0 0 0
-0 0 0 -0 -0 -0 -0 0 0 -0 -0 0 -0 -0 -0 -0 0 0 0 0 0 0 0 0 0 0 1 3 4 3 2 1 1 1 0 0 0 0 0 0 0 0 0 0
0 0 0 0 0 0 0 0 0 -0 0 0 -0 -0 -0 -0 -0 0 0 -0 0 0 0 0 -0 0 0 1 2 2 1 1 1 1 0 0 0 0 0 0 0 0 0 0
0 0 0 0 0 0 0 0 0 -0 0 0 0 -0 -0 -0 0 -0 -0 0 0 0 0 0 -0 0 0 0 1 1 1 1 0 0 0 0 0 0 0 0 0 0 0 0
0 0 0 0 0 0 0 0 -0 0 -0 -0 -0 0 -0 -0 0 -0 -0 -0 0 0 0 0 -0 -0 0 0 1 1 1 0 0 0 0 0 0 0 0 0 0 0 0 0
0 0 0 0 0 0 0 0 0 0 -0 -0 -0 0 0 0 0 -0 -0 -0 0 0 0 -0 -0 -0 0 0 0 1 0 0 0 0 0 0 0 0 0 0 0 0 0 0
0 0 0 0 0 0 0 0 0 0 -0 -0 -0 0 -0 -0 -0 0 -0 -0 0 0 0 0 -0 -0 0 0 0 0 0 0 0 0 0 0 0 0 0 0 0 0 0 0
0 0 0 0 0 0 0 0 0 0 -0 -0 0 -0 0 -0 0 0 -0 -0 0 -0 0 0 0 -0 0 -0 0 0 0 0 0 0 0 0 0 0 0 0 0 0 0 0
0 0 0 0 0 0 0 0 0 0 0 0 -0 0 -0 -0 0 0 -0 -0 0 0 0 0 0 -0 -0 0 0 0 0 0 0 0 0 0 0 0 0 0 0 0 0 0
-0 0 -0 0 0 0 0 0 -0 0 0 0 -0 0 -0 -0 0 0 -0 -0 0 -0 0 0 0 0 0 0 -0 0 0 0 0 0 0 0 0 0 0 0 0 0 0 0
-0 0 -0 0 0 0 0 0 0 0 -0 -0 -0 0 0 -0 0 0 -0 0 0 0 0 0 0 0 -0 -0 -0 0 0 0 0 0 0 0 0 0 0 0 0 -0 0 -0
0 0 0 0 0 0 -0 0 0 -0 -0 -0 -0 0 0 0 0 0 0 0 0 0 0 0 0 -0 -0 0 0 0 0 0 0 0 0 0 -0 0 -0 -0 -0 -0 -0 -0
0 0 0 0 0 -0 0 0 -0 0 0 -0 0 0 -0 0 0 0 0 0 0 0 0 0 -0 0 0 -0 0 0 0 0 0 0 0 -0 -0 -0 -0 0 -0 -0 -0 -0
0 0 0 0 0 0 0 -0 0 0 0 0 0 0 0 0 0 0 0 0 0 0 0 0 0 0 0 0 0 0 0 0 0 0 -0 -0 -0 -0 0 0 0 0 -0 -0
0 0 0 0 0 0 -0 -0 0 -0 -0 0 0 0 0 0 0 0 0 0 0 0 0 0 0 0 0 0 0 0 0 0 0 0 -0 -0 -0 -0 -0 0 0 0 -0 -0
0 0 0 0 0 -0 0 -0 -0 -0 -0 0 0 0 0 0 0 0 0 0 0 0 0 0 0 0 0 0 0 0 0 0 0 0 -0 -0 -0 -0 0 0 0 0 0 -0
0 0 -0 0 0 -0 -0 -0 -0 -0 -0 0 0 0 0 0 0 0 0 0 0 0 0 0 0 0 0 0 0 0 0 0 0 0 -0 -0 -0 0 0 0 0 -0 -0 0
0 0 0 0 0 0 0 0 0 0 0 0 0 0 0 0 0 0 0 0 0 0 0 0 0 0 0 0 0 0 0 0 0 0 0 -0 -0 0 0 0 -0 0 0 -0
0 -0 -0 -0 0 0 0 -0 0 0 0 0 0 0 0 0 0 0 0 0 0 0 0 0 0 0 -0 0 0 0 0 0 0 0 0 0 0 0 0 -0 -0 -0 -0 -0
0 0 -0 -0 0 0 0 0 0 0 0 0 0 0 0 0 0 0 0 0 0 0 0 0 0 -0 0 0 0 0 0 0 0 0 0 0 0 -0 0 -0 -0 -0 -0 -0
0 0 -0 -0 -0 0 0 0 0 0 0 0 0 0 0 0 0 0 0 0 0 0 0 0 0 0 0 0 0 0 0 0 0 0 0 0 0 0 -0 -0 0 0 0 0
0 -0 -0 -0 -0 0 0 0 0 0 0 0 0 0 0 0 0 0 0 0 0 0 0 0 0 0 0 0 0 0 0 0 0 0 0 0 -0 -0 0 0 0 0 0 0
0 -0 -0 -0 -0 0 -0 -0 0 0 0 0 0 0 0 0 0 0 0 0 0 0 0 0 0 0 0 0 0 0 0 0 0 0 0 0 0 0 0 0 0 0 0 0
0 -0 -0 -0 -0 -0 0 0 0 0 0 0 0 0 0 0 0 0 0 0 0 0 0 0 0 0 0 0 0 0 0 -0 0 0 0 0 0 0 0 0 0 0 0 0
0 -0 -0 -0 -0 -0 -0 0 0 0 0 0 -0 -0 0 0 0 0 0 0 0 0 0 0 0 0 0 0 0 0 0 -0 0 -0 0 0 0 0 0 0 0 0 0 0
0 -0 -0 -0 0 -0 -0 -0 0 0 0 0 0 0 0 0 0 0 0 0 0 0 0 0 0 0 0 0 0 0 0 0 -0 0 -0 0 0 0 0 0 0 0 0 0
0 0 -0 0 0 -0 -0 0 0 0 0 0 0 0 0 0 0 0 0 0 0 0 0 0 0 0 0 0 0 0 0 0 0 0 0 0 0 0 0 0 0 0 0 0
Wind_Speed_500mb
27 35 37 40 39 37 32 25 16 20 15 20 26 19 16 21 41 40 33 49 72 73 53 37 20 23 39 39 59 64 58 52 49 51 50 58 58 55 55 53 50 48 45 36
33 34 36 42 40 33 27 20 10 16 18 7 28 32 20 30 36 39 47 38 50 69 78 39 33 6 19 41 63 64 58 55 59 63 62 59 55 58 52 52 52 47 40 37
9 14 23 15 18 16 8 3 6 9 7 8 11 21 22 39 27 25 44 54 62 75 79 75 58 8 20 53 61 59 60 65 69 66 58 49 51 50 53 54 47 43 40 38
10 11 6 10 9 8 6 6 12 11 8 12 19 39 44 43 19 47 52 70 77 74 83 72 35 31 39 56 62 63 66 70 68 54 53 55 55 51 51 47 44 42 44 36
6 5 18 19 7 3 4 11 3 5 9 16 36 50 42 31 54 63 58 64 69 68 71 54 47 30 20 41 58 68 71 64 64 54 60 52 51 48 51 49 43 40 38 35
3 4 9 10 8 13 6 10 7 7 12 12 20 21 33 69 88 88 76 65 64 65 60 44 46 22 41 48 45 64 71 67 59 56 52 55 53 50 47 45 43 41 36 27
14 9 13 11 10 7 7 8 18 21 37 33 16 29 71 87 91 73 69 68 62 59 56 50 51 38 54 58 32 71 59 58 55 53 55 58 56 46 44 44 41 36 30 27
7 10 13 14 10 11 13 19 33 50 51 52 69 70 73 66 73 70 67 66 51 57 53 51 55 11 50 65 42 51 57 64 61 56 55 51 49 43 42 41 39 38 35 33
11 12 13 16 14 35 48 55 50 37 49 45 69 68 81 68 62 74 64 62 52 55 56 43 46 11 59 34 41 65 61 59 59 55 48 43 45 44 43 38 40 41 38 35
13 10 22 51 53 49 50 47 48 50 39 38 66 70 61 71 66 73 59 56 51 51 47 39 38 7 47 33 39 65 62 61 64 55 53 45 42 37 40 40 36 38 37 32
17 28 37 46 33 61 55 61 55 51 54 59 65 68 58 72 75 77 65 60 49 48 44 46 33 12 54 44 52 63 59 63 70 60 51 51 43 40 35 29 26 30 33 28
23 33 31 42 68 70 67 53 41 61 66 58 62 78 66 70 76 65 61 55 49 43 36 39 28 48 40 47 74 73 73 79 68 57 53 48 44 48 38 30 27 21 23 23
41 55 78 75 57 60 42 45 63 49 55 79 87 76 62 70 70 61 55 53 46 39 31 18 27 76 50 73 83 80 80 71 58 54 50 41 43 45 47 38 31 27 28 26
67 61 49 43 44 45 65 60 49 69 74 65 66 64 59 63 63 63 62 47 39 32 26 29 39 23 47 68 79 81 63 54 53 51 41 39 35 38 39 39 40 37 32 30
31 27 29 52 51 56 64 56 54 51 53 63 51 51 52 53 54 48 44 34 34 27 26 22 20 26 25 68 73 73 62 54 53 47 45 38 35 35 34 35 38 39 35 30
39 32 44 45 48 61 59 51 49 52 50 51 19 19 28 26 27 24 19 18 22 27 25 21 21 10 48 56 75 63 54 52 45 47 44 38 39 38 34 37 39 42 38 28
24 37 51 51 54 59 51 42 42 42 43 23 6 7 13 14 12 10 10 14 18 11 18 15 11 28 46 56 70 61 56 46 43 45 42 37 38 35 35 37 39 39 33 26
24 37 47 49 44 56 49 42 41 44 41 25 18 12 22 20 15 15 23 32 28 20 22 25 48 36 46 64 68 58 54 42 41 42 43 38 37 30 31 37 38 40 34 29
28 40 59 50 42 53 47 46 41 39 36 27 29 32 30 28 29 33 46 54 55 60 55 48 41 29 47 64 67 60 51 42 43 40 41 39 38 29 32 35 40 43 38 39
30 42 60 45 47 52 49 45 41 44 40 35 32 36 38 34 41 50 52 58 58 58 54 42 55 28 43 70 67 60 49 45 49 43 43 43 37 38 37 34 46 47 43 45
31 41 57 47 45 54 53 51 47 50 46 35 38 43 39 34 38 47 47 47 40 34 44 60 48 35 60 63 58 53 48 42 44 49 44 43 40 49 46 42 46 45 50 50
33 46 55 48 42 50 53 53 52 49 54 49 39 40 41 43 43 41 40 36 34 36 30 24 35 34 53 57 58 51 58 52 53 46 43 59 58 55 57 54 52 53 59 55
33 45 49 45 35 42 49 52 52 55 55 52 54 55 54 47 42 43 40 34 29 32 36 38 28 23 44 50 52 42 44 53 51 39 46 60 63 64 60 55 62 60 62 59
30 42 44 38 26 35 45 44 48 54 58 56 55 56 57 55 56 50 40 39 40 39 34 34 33 25 38 46 41 29 39 47 54 52 57 66 74 66 67 68 72 70 67 63
27 35 40 39 33 32 33 35 47 53 55 57 59 61 60 57 57 47 46 42 41 41 41 37 29 17 22 36 44 37 40 47 52 63 72 76 80 80 80 79 76 74 69 61
12 30 38 37 31 27 27 32 46 51 56 60 57 57 61 61 58 54 53 54 52 48 45 42 45 35 35 38 39 39 41 44 53 57 65 70 73 76 77 76 75 73 69 68
7 20 31 38 35 28 27 32 36 43 49 52 55 55 60 64 65 63 62 61 62 62 58 53 48 46 41 41 39 38 38 35 41 50 59 64 66 70 71 71 72 77 75 76
Wind_Direction_500mb
249 265 267 263 277 280 272 260 247 269 239 264 263 253 248 298 318 342 41 287 305 329 326 332 314 245 216 211 199 194 190 188 194 190 183 188 190 190 179 178 177 176 176 184
288 274 266 269 269 272 275 255 264 270 287 277 275 251 298 294 303 321 293 311 327 341 359 3 348 302 215 198 185 181 183 187 182 181 177 180 183 169 170 169 172 175 179 185
267 331 309 290 277 236 215 274 226 265 268 327 315 301 315 297 293 281 313 333 345 347 353 4 0 237 276 201 187 186 186 179 174 171 172 170 172 171 171 175 173 177 182 187
292 341 285 234 25 58 327 214 312 301 270 291 307 308 305 301 327 321 334 333 340 341 355 16 5 331 282 214 194 185 178 168 164 164 167 164 164 168 169 172 175 178 179 186
255 207 271 289 150 132 187 269 259 278 307 317 318 322 311 308 314 315 322 330 331 339 350 12 8 342 335 183 189 178 168 165 164 169 166 169 168 165 171 174 179 182 180 185
202 245 266 250 153 166 109 295 235 275 277 273 314 313 302 317 320 318 320 323 320 324 340 352 14 106 155 206 200 172 167 162 164 170 171 165 166 169 174 175 176 182 186 195
243 249 267 228 178 190 122 265 198 266 298 281 251 263 290 305 307 309 310 309 312 316 324 338 333 332 197 233 192 172 161 170 165 161 166 168 168 173 178 183 187 189 195 194
235 229 266 172 177 179 211 263 245 272 273 274 283 291 295 296 295 301 306 307 305 310 312 334 334 315 221 246 171 167 161 158 163 163 159 170 173 174 182 186 191 190 189 189
214 236 256 248 242 294 302 284 280 256 266 270 282 290 295 294 294 298 305 302 294 300 310 335 331 215 227 210 178 168 164 165 164 150 157 166 175 182 185 192 191 187 188 188
316 273 286 284 282 298 289 290 295 282 262 265 277 284 281 290 292 291 300 294 292 302 305 318 314 117 211 215 200 175 170 172 165 159 165 170 179 187 186 181 185 190 187 187
264 281 294 284 287 305 288 297 291 282 288 286 269 273 277 282 279 280 285 284 293 295 295 314 312 223 199 221 198 177 171 169 166 164 166 168 170 170 175 178 185 191 193 190
285 287 285 292 303 308 294 289 292 293 284 272 267 270 270 269 269 270 273 274 281 282 286 325 265 211 258 236 190 180 171 164 165 167 167 168 170 166 167 182 179 179 182 189
281 293 293 285 303 302 299 310 307 275 278 290 285 272 265 259 261 261 259 263 268 283 293 330 263 282 261 193 182 176 166 163 165 167 167 168 175 177 172 174 173 174 177 184
306 295 291 300 310 315 314 316 306 300 294 283 282 278 267 257 255 253 252 255 261 273 282 311 305 319 157 174 176 168 161 162 164 164 164 165 173 179 183 179 171 169 173 177
314 316 319 325 322 322 323 325 314 308 309 301 292 266 250 244 246 245 247 254 249 266 298 308 290 284 197 182 173 165 155 153 161 165 170 165 162 172 178 177 174 172 170 171
316 337 343 333 333 330 333 332 328 320 326 335 319 253 238 234 232 233 237 224 257 276 289 280 258 232 172 178 166 160 152 154 160 171 167 162 161 165 165 170 171 172 177 187
4 356 346 336 334 339 343 341 340 344 349 18 28 186 168 163 163 178 161 239 241 236 285 271 239 173 166 178 165 161 157 157 171 174 168 168 167 160 162 171 177 182 182 184
2 4 360 342 343 345 353 360 4 17 18 28 67 141 149 146 141 156 150 128 133 125 132 163 161 147 167 178 174 165 161 166 181 181 176 173 168 156 162 173 177 178 175 167
6 6 2 1 358 2 5 13 20 31 43 55 97 113 120 125 133 138 132 126 130 118 114 133 149 182 196 184 183 171 164 177 181 177 175 172 167 160 166 175 172 167 162 151
12 6 5 6 7 17 22 31 34 42 44 66 87 100 107 113 108 115 130 122 114 120 131 124 171 250 201 183 179 171 168 170 178 184 178 173 172 167 170 170 165 161 158 155
17 12 9 12 14 20 32 41 45 50 49 58 80 84 91 96 108 116 122 120 107 128 143 160 186 211 185 180 179 168 171 184 181 188 187 184 177 172 169 160 160 162 155 156
13 13 14 14 20 25 32 42 50 56 62 66 73 85 96 96 98 106 116 108 98 101 112 148 195 180 168 176 174 175 185 187 177 199 214 195 184 181 179 174 170 169 175 174
15 16 15 17 22 33 38 44 50 57 60 69 74 77 80 84 92 100 107 112 120 116 112 97 119 161 167 172 172 178 178 179 180 190 186 182 184 190 191 182 183 182 182 186
19 18 14 23 28 38 44 52 59 62 65 66 73 78 83 83 83 82 92 114 112 111 112 117 107 121 148 152 164 176 178 180 178 177 173 181 185 189 183 180 179 185 185 186
0 26 26 29 44 44 44 55 69 68 69 69 72 76 77 79 82 85 86 88 102 113 111 113 129 150 128 127 133 142 160 160 160 162 165 170 175 178 173 173 174 172 174 172
343 20 32 39 53 59 59 65 69 72 73 76 77 81 84 83 82 84 88 89 90 93 101 107 111 133 146 139 139 141 145 152 158 160 161 161 162 164 165 165 166 165 161 157
328 15 29 48 56 65 71 71 72 70 72 77 85 86 86 85 84 83 84 86 88 90 90 92 97 109 111 114 126 147 143 151 154 154 154 150 149 147 149 150 150 152 150 146
Wind_Speed_850mb
27 35 37 40 39 37 32 25 16 20 15 20 26 19 16 21 41 40 33 49 72 73 53 37 20 23 39 39 59 64 58 52 49 51 50 58 58 55 55 53 50 48 45 36
33 34 36 42 40 33 27 20 10 16 18 7 28 32 20 30 36 39 47 38 50 69 78 39 33 6 19 41 63 64 58 55 59 63 62 59 55 58 52 52 52 47 40 37
9 14 23 15 18 16 8 3 6 9 7 8 11 21 22 39 27 25 44 54 62 75 79 75 58 8 20 53 61 59 60 65 69 66 58 49 51 50 53 54 47 43 40 38
10 11 6 10 9 8 6 6 12 11 8 12 19 39 44 43 19 47 52 70 77 74 83 72 35 31 39 56 62 63 66 70 68 54 53 55 55 51 51 47 44 42 44 36
6 5 18 19 7 3 4 11 3 5 9 16 36 50 42 31 54 63 58 64 69 68 71 54 47 30 20 41 58 68 71 64 64 54 60 52 51 48 51 49 43 40 38 35
3 4 9 10 8 13 6 10 7 7 12 12 20 21 33 69 88 88 76 65 64 65 60 44 46 22 41 48 45 64 71 67 59 56 52 55 53 50 47 45 43 41 36 27
14 9 13 11 10 7 7 8 18 21 37 33 16 29 71 87 91 73 69 68 62 59 56 50 51 38 54 58 32 71 59 58 55 53 55 58 56 46 44 44 41 36 30 27
7 10 13 14 10 11 13 19 33 50 51 52 69 70 73 66 73 70 67 66 51 57 53 51 55 11 50 65 42 51 57 64 61 56 55 51 49 43 42 41 39 38 35 33
11 12 13 16 14 35 48 55 50 37 49 45 69 68 81 68 62 74 64 62 52 55 56 43 46 11 59 34 41 65 61 59 59 55 48 43 45 44 43 38 40 41 38 35
13 10 22 51 53 49 50 47 48 50 39 38 66 70 61 71 66 73 59 56 51 51 47 39 38 7 47 33 39 65 62 61 64 55 53 45 42 37 40 40 36 38 37 32
17 28 37 46 33 61 55 61 55 51 54 59 65 68 58 72 75 77 65 60 49 48 44 46 33 12 54 44 52 63 59 63 70 60 51 51 43 40 35 29 26 30 33 28
23 33 31 42 68 70 67 53 41 61 66 58 62 78 66 70 76 65 61 55 49 43 36 39 28 48 40 47 74 73 73 79 68 57 53 48 44 48 38 30 27 21 23 23
41 55 78 75 57 60 42 45 63 49 55 79 87 76 62 70 70 61 55 53 46 39 31 18 27 76 50 73 83 80 80 71 58 54 50 41 43 45 47 38 31 27 28 26
67 61 49 43 44 45 65 60 49 69 74 65 66 64 59 63 63 63 62 47 39 32 26 29 39 23 47 68 79 81 63 54 53 51 41 39 35 38 39 39 40 37 32 30
31 27 29 52 51 56 64 56 54 51 53 63 51 51 52 53 54 48 44 34 34 27 26 22 20 26 25 68 73 73 62 54 53 47 45 38 35 35 34 35 38 39 35 30
39 32 44 45 48 61 59 51 49 52 50 51 19 19 28 26 27 24 19 18 22 27 25 21 21 10 48 56 75 63 54 52 45 47 44 38 39 38 34 37 39 42 38 28
24 37 51 51 54 59 51 42 42 42 43 23 6 7 13 14 12 10 10 14 18 11 18 15 11 28 46 56 70 61 56 46 43 45 42 37 38 35 35 37 39 39 33 26
24 37 47 49 44 56 49 42 41 44 41 25 18 12 22 20 15 15 23 32 28 20 22 25 48 36 46 64 68 58 54 42 41 42 43 38 37 30 31 37 38 40 34 29
28 40 59 50 42 53 47 46 41 39 36 27 29 32 30 28 29 33 46 54 55 60 55 48 41 29 47 64 67 60 51 42 43 40 41 39 38 29 32 35 40 43 38 39
30 42 60 45 47 52 49 45 41 44 40 35 32 36 38 34 41 50 52 58 58 58 54 42 55 28 43 70 67 60 49 45 49 43 43 43 37 38 37 34 46 47 43 45
31 41 57 47 45 54 53 51 47 50 46 35 38 43 39 34 38 47 47 47 40 34 44 60 48 35 60 63 58 53 48 42 44 49 44 43 40 49 46 42 46 45 50 50
33 46 55 48 42 50 53 53 52 49 54 49 39 40 41 43 43 41 40 36 34 36 30 24 35 34 53 57 58 51 58 52 53 46 43 59 58 55 57 54 52 53 59 55
33 45 49 45 35 42 49 52 52 55 55 52 54 55 54 47 42 43 40 34 29 32 36 38 28 23 44 50 52 42 44 53 51 39 46 60 63 64 60 55 62 60 62 59
30 42 44 38 26 35 45 44 48 54 58 56 55 56 57 55 56 50 40 39 40 39 34 34 33 25 38 46 41 29 39 47 54 52 57 66 74 66 67 68 72 70 67 63
27 35 40 39 33 32 33 35 47 53 55 57 59 61 60 57 57 47 46 42 41 41 41 37 29 17 22 36 44 37 40 47 52 63 72 76 80 80 80 79 76 74 69 61
12 30 38 37 31 27 27 32 46 51 56 60 57 57 61 61 58 54 53 54 52 48 45 42 45 35 35 38 39 39 41 44 53 57 65 70 73 76 77 76 75 73 69 68
7 20 31 38 35 28 27 32 36 43 49 52 55 55 60 64 65 63 62 61 62 62 58 53 48 46 41 41 39 38 38 35 41 50 59 64 66 70 71 71 72 77 75 76
Wind_Direction_850mb
249 265 267 263 277 280 272 260 247 269 239 264 263 253 248 298 318 342 41 287 305 329 326 332 314 245 216 211 199 194 190 188 194 190 183 188 190 190 179 178 177 176 176 184
288 274 266 269 269 272 275 255 264 270 287 277 275 251 298 294 303 321 293 311 327 341 359 3 348 302 215 198 185 181 183 187 182 181 177 180 183 169 170 169 172 175 179 185
267 331 309 290 277 236 215 274 226 265 268 327 315 301 315 297 293 281 313 333 345 347 353 4 0 237 276 201 187 186 186 179 174 171 172 170 172 171 171 175 173 177 182 187
292 341 285 234 25 58 327 214 312 301 270 291 307 308 305 301 327 321 334 333 340 341 355 16 5 331 282 214 194 185 178 168 164 164 167 164 164 168 169 172 175 178 179 186
255 207 271 289 150 132 187 269 259 278 307 317 318 322 311 308 314 315 322 330 331 339 350 12 8 342 335 183 189 178 168 165 164 169 166 169 168 165 171 174 179 182 180 185
202 245 266 250 153 166 109 295 235 275 277 273 314 313 302 317 320 318 320 323 320 324 340 352 14 106 155 206 200 172 167 162 164 170 171 165 166 169 174 175 176 182 186 195
243 249 267 228 178 190 122 265 198 266 298 281 251 263 290 305 307 309 310 309 312 316 324 338 333 332 197 233 192 172 161 170 165 161 166 168 168 173 178 183 187 189 195 194
235 229 266 172 177 179 211 263 245 272 273 274 283 291 295 296 295 301 306 307 305 310 312 334 334 315 221 246 171 167 161 158 163 163 159 170 173 174 182 186 191 190 189 189
214 236 256 248 242 294 302 284 280 256 266 270 282 290 295 294 294 298 305 302 294 300 310 335 331 215 227 210 178 168 164 165 164 150 157 166 175 182 185 192 191 187 188 188
316 273 286 284 282 298 289 290 295 282 262 265 277 284 281 290 292 291 300 294 292 302 305 318 314 117 211 215 200 175 170 172 165 159 165 170 179 187 186 181 185 190 187 187
264 281 294 284 287 305 288 297 291 282 288 286 269 273 277 282 279 280 285 284 293 295 295 314 312 223 199 221 198 177 171 169 166 164 166 168 170 170 175 178 185 191 193 190
285 287 285 292 303 308 294 289 292 293 284 272 267 270 270 269 269 270 273 274 281 282 286 325 265 211 258 236 190 180 171 164 165 167 167 168 170 166 167 182 179 179 182 189
281 293 293 285 303 302 299 310 307 275 278 290 285 272 265 259 261 261 259 263 268 283 293 330 263 282 261 193 182 176 166 163 165 167 167 168 175 177 172 174 173 174 177 184
306 295 291 300 310 315 314 316 306 300 294 283 282 278 267 257 255 253 252 255 261 273 282 311 305 319 157 174 176 168 161 162 164 164 164 165 173 179 183 179 171 169 173 177
314 316 319 325 322 322 323 325 314 308 309 301 292 266 250 244 246 245 247 254 249 266 298 308 290 284 197 182 173 165 155 153 161 165 170 165 162 172 178 177 174 172 170 171
316 337 343 333 333 330 333 332 328 320 326 335 319 253 238 234 232 233 237 224 257 276 289 280 258 232 172 178 166 160 152 154 160 171 167 162 161 165 165 170 171 172 177 187
4 356 346 336 334 339 343 341 340 344 349 18 28 186 168 163 163 178 161 239 241 236 285 271 239 173 166 178 165 161 157 157 171 174 168 168 167 160 162 171 177 182 182 184
2 4 360 342 343 345 353 360 4 17 18 28 67 141 149 146 141 156 150 128 133 125 132 163 161 147 167 178 174 165 161 166 181 181 176 173 168 156 162 173 177 178 175 167
6 6 2 1 358 2 5 13 20 31 43 55 97 113 120 125 133 138 132 126 130 118 114 133 149 182 196 184 183 171 164 177 181 177 175 172 167 160 166 175 172 167 162 151
12 6 5 6 7 17 22 31 34 42 44 66 87 100 107 113 108 115 130 122 114 120 131 124 171 250 201 183 179 171 168 170 178 184 178 173 172 167 170 170 165 161 158 155
17 12 9 12 14 20 32 41 45 50 49 58 80 84 91 96 108 116 122 120 107 128 143 160 186 211 185 180 179 168 171 184 181 188 187 184 177 172 169 160 160 162 155 156
13 13 14 14 20 25 32 42 50 56 62 66 73 85 96 96 98 106 116 108 98 101 112 148 195 180 168 176 174 175 185 187 177 199 214 195 184 181 179 174 170 169 175 174
15 16 15 17 22 33 38 44 50 57 60 69 74 77 80 84 92 100 107 112 120 116 112 97 119 161 167 172 172 178 178 179 180 190 186 182 184 190 191 182 183 182 182 186
19 18 14 23 28 38 44 52 59 62 65 66 73 78 83 83 83 82 92 114 112 111 112 117 107 121 148 152 164 176 178 180 178 177 173 181 185 189 183 180 179 185 185 186
0 26 26 29 44 44 44 55 69 68 69 69 72 76 77 79 82 85 86 88 102 113 111 113 129 150 128 127 133 142 160 160 160 162 165 170 175 178 173 173 174 172 174 172
343 20 32 39 53 59 59 65 69 72 73 76 77 81 84 83 82 84 88 89 90 93 101 107 111 133 146 139 139 141 145 152 158 160 161 161 162 164 165 165 166 165 161 157
328 15 29 48 56 65 71 71 72 70 72 77 85 86 86 85 84 83 84 86 88 90 90 92 97 109 111 114 126 147 143 151 154 154 154 150 149 147 149 150 150 152 150 146